Terug naar catalogus

BREEZE-M DEB

ActiefHEO
NORAD 39327·DEBRIS·🇷🇺 Russia

Gelanceerd Mar 14, 2008 vanaf Baikonur Cosmodrome

Loading…

Volgende Passages (komende 24 uur)

TLE

VersSource: Space-Track

Epoch: Sep 11, 2026, 22:43 UTC

1 39327U 08011DE  26254.94665413  .00000710  00000-0  57092-2 0  9994
2 39327  49.5131  89.2593 6612072 104.0261   6.9294  2.95030471  3636

Volg BREEZE-M DEB in realtime met AllMySat

Download on the App Store